Regional Weather Roundup
Issued by NWS Kansas City/Pleasant Hill, MO

Home | Current Version | Previous Version | Graphics & Text | Print | Product List | Glossary Off
Versions: 1 2 3 4 5 6 7 8 9 10 11 12 13 14 15 16 17 18 19 20 21 22 23 24 25 26 27

000
ASUS43 KEAX 231210
RWREAX

WEATHER ROUNDUP FOR EASTERN KANSAS AND NORTHWEST MISSOURI
NATIONAL WEATHER SERVICE KANSAS CITY/PLEASANT HILL MO
600 AM CST MON JAN 23 2017

KSZ040-057-103>105-MOZ028-029-037-043-231300-
...KANSAS CITY METROPOLITAN AREA...

CITY           SKY/WX    TMP DP  RH WIND       PRES   REMARKS
K.C. INTL      FOG       31  29  92 NW6       29.89F VSB 1/8 WCI  25
6HR MIN TEMP:  28; 6HR MAX TEMP:  33;

K.C. DOWNTOWN  CLOUDY    31  30  96 NW6       29.90R FOG     WCI  25
6HR MIN TEMP:  31; 6HR MAX TEMP:  38;

LEES SUMMIT    PTCLDY    30  30 100 W8        29.88F FOG     WCI  22
6HR MIN TEMP:  29; 6HR MAX TEMP:  38;

OLATHE - IXD   CLEAR     28  27  96 NW7       29.89F FOG     WCI  21
6HR MIN TEMP:  28; 6HR MAX TEMP:  34;

OLATHE - OJC   CLEAR     29  29 100 NW7       29.88F WCI  22
6HR MIN TEMP:  29; 6HR MAX TEMP:  36;

LAWRENCE       FOG       23  23 100 CALM      29.91S VSB 1/4

$$

MOZ001>008-011>017-020>025-030>033-038>040-044>046-053-054-231300-
...NORTHERN AND CENTRAL MISSOURI...

CITY           SKY/WX    TMP DP  RH WIND       PRES   REMARKS
ST. JOSEPH     CLOUDY    32  32 100 N8        29.90F FOG     WCI  25
6HR MIN TEMP:  28; 6HR MAX TEMP:  32;

MOSBY          CLOUDY    32  32 100 NW9       29.90S FOG     WCI  24
WARRENSBURG    CLOUDY    32  32 100 NW5       29.88F FOG     WCI  27
WHITEMAN AFB   CLOUDY    32  32 100 N5        29.86F FOG     WCI  27
CLINTON        CLEAR     32  32 100 CALM      29.88F FOG
SEDALIA        CLOUDY    37  35  92 NW9       29.88R WCI  30
6HR MIN TEMP:  37; 6HR MAX TEMP:  40;

WARSAW         NOT AVBL
CHILLICOTHE      N/A     33  31  92 NW9       29.89R WCI  25
6HR MIN TEMP:  33; 6HR MAX TEMP:  39;

KIRKSVILLE     CLOUDY    37  35  92 NW7       29.84R WCI  32
6HR MIN TEMP:  37; 6HR MAX TEMP:  38;


$$

MOZ041-047>049-056>058-063>065-088>090-097-231300-
...EASTERN AND SOUTHERN MISSOURI...

CITY           SKY/WX    TMP DP  RH WIND       PRES   REMARKS
ST. LOUIS INTL CLOUDY    41  36  82 NW10      29.79R WCI  35
6HR MIN TEMP:  40; 6HR MAX TEMP:  41;

SPIRIT OF STL  CLOUDY    41  37  86 NW12      29.80R WCI  34
COLUMBIA       CLOUDY    38  35  89 NW10      29.84R WCI  31
JEFFERSON CITY CLOUDY    40  35  83 NW10      29.85R WCI  33
ROLLA          CLOUDY    38  36  92 NW12      29.81R WCI  30
OSAGE BEACH    CLOUDY    39  36  89 NW5       29.86S
SPRINGFIELD    CLOUDY    37  35  92 NW12      29.85S WCI  29
BRANSON        MOCLDY    36  36 100 NW9       29.85F FOG     WCI  29
JOPLIN         CLOUDY    36  36 100 NW5       29.91R WCI  32
WEST PLAINS    CLOUDY    40  34  79 N12G22    29.81R WCI  33

$$

IAZ060-094-KSZ022-034>040-054-083-096-NEZ052-066-093-231300-
...KANSAS...SOUTHEAST NEBRASKA AND IOWA...

CITY           SKY/WX    TMP DP  RH WIND       PRES   REMARKS
TOPEKA         PTCLDY    26  22  84 CALM      29.91R FOG
6HR MIN TEMP:  25; 6HR MAX TEMP:  33;

MANHATTAN      PTCLDY    22  19  89 CALM      29.91S
EMPORIA        CLEAR     26  25  96 NW5       29.91S FOG     WCI  20
CHANUTE        CLEAR     28  26  92 NW3       29.90F
WICHITA        CLEAR     27  26  96 S3        29.91S
OMAHA          CLOUDY    32  26  78 NW7       29.89S WCI  26
LINCOLN        CLOUDY    30  27  88 CALM      29.91F
FALLS CITY     CLOUDY    31  29  92 N6        29.91R FOG     WCI  25
LAMONI         CLOUDY    32  28  85 NW10      29.85S WCI  24
DES MOINES     DRIZZLE   33  30  88 NW9       29.86S FOG     WCI  25

$$





USA.gov is the U.S. government's official web portal to all federal, state and local government web resources and services.